Погода в Рино

США     39°31′47″N   119°48′48″W
темп.,
°C
ветер,
м/с
пор.,
м/с
влажн.,
%
обл.,
%
осадки,
мм/ч
давл.,
гПа
погр.,
м
11 апреля, вс
вс1123:00+11зюз23450 0.0 101385
02:00+9зсз22450 0.0 101369
05:00+7сз22460 0.0 101484
08:00+8ссв22430 0.0 1014261
11:00+12св22310 0.0 10131048
14:00+16св33200 0.0 10101857
17:00+17ссв53203 0.0 10081814
20:00+13ссв34225 0.0 1010205
12 апреля, пн
пн1223:00+10ссв12244 0.0 1012104
02:00+9всв11260 0.0 101248
05:00+7св22310 0.0 101253
08:00+8св222940 0.0 1013284
11:00+12в332220 0.0 10121321
14:00+15в43196 0.0 10091916
17:00+16вюв232151 0.0 10062221
20:00+13зюз233810 0.0 1007305
13 апреля, вт
вт1323:00+11зюз22443 0.0 100776
02:00+8зюз33480 0.0 100778
05:00+7зюз22503 0.0 100660
08:00+8сз23440 0.0 1005330
11:00+6с677392 0.6 1008902
14:00+4ссз5682100 3.4 1009706
17:00+7ссз584794 5.1 10071716
20:00+4зсз576336 0.6 1011555
14 апреля, ср
ср1423:00+3зсз237590 1.1 1013293
02:00+2сз338288 0.0 1014206
05:000зсз228417 0.0 101597
08:00+1сз22755 0.0 1016312
11:00+6ссз324910 0.0 10141168
14:00+9ссз333398 0.1 10111980
17:00+9зсз3433100 0.4 10112126
20:00+7ю344598 0.2 10131082
15 апреля, чт
чт1523:00+4юз346699 0.5 1016259
02:00+4з226110 0.1 1016109
05:00+2зюз22620 0.1 101761
08:00+4з11490 0.0 1017240
11:00+8всв11280 0.0 10151223
14:00+12св23210 0.0 10131977
17:00+14св34191 0.0 10102213
20:00+10с45252 0.0 1012234